Regional Weather Roundup
Issued by NWS

Home | Current Version | Previous Version | Graphics & Text | Print | Product List | Glossary On
Versions: 1 2 3 4 5 6 7 8 9 10 11 12 13 14 15 16 17 18 19 20 21 22 23 24 25 26 27 28 29 30 31 32 33 34 35 36 37 38 39 40 41 42 43 44 45 46 47 48 49 50
769
ASUS45 KABQ 281001
RWRNM
NEW MEXICO REGIONAL WEATHER ROUNDUP
NATIONAL WEATHER SERVICE ALBUQUERQUE NM
400 AM MDT WED SEP 28 2016

NOTE: "FAIR" MEANS FEW OR NO CLOUDS BELOW 12,000 FEET AGL WITH NO
       SIGNIFICANT WEATHER OR OBSTRUCTIONS TO VISION.

      THIS PRODUCT IS RELEASED AS TWO VERSIONS.  ONE VERSION NEAR
      THE TOP OF THE HOUR CONTAINING PRELIMINARY DATA FROM ALBUQUERQUE
      AND OTHER STATIONS.  A FINAL VERSION WITH ADDITIONAL DATA IS
      ISSUED ABOUT 10 MINUTES AFTER THE HOUR.

NMZ501-503-504-510>518-281100-
NORTHWEST PLATEAU/NORTHCENTRAL MOUNTAINS

CITY           SKY/WX    TMP DP  RH WIND       PRES   REMARKS
FARMINGTON     FAIR      47  32  56 NE7       30.24F
LOS ALAMOS     FAIR      56  25  30 CALM      30.35S
SANTA FE       FAIR      49  35  58 N10       30.29S
TAOS           FAIR      39  21  48 CALM      30.36R

$$
NMZ402-403-502-505>509-281100-
WESTCENTRAL MOUNTAINS/SOUTHWEST MOUNTAINS

CITY           SKY/WX    TMP DP  RH WIND       PRES   REMARKS
GALLUP         FAIR      40  37  89 CALM      30.30S
SILVER CITY    FAIR      52  46  80 NW6       30.23F

$$
NMZ407-409-411-412-281100-
SOUTHERN DESERTS

CITY           SKY/WX    TMP DP  RH WIND       PRES   REMARKS
DEMING         FAIR      57  49  74 NE3       30.18F
LAS CRUCES     FAIR      56  53  89 NE5       30.19F
HOLLOMAN AFB   FAIR      56  51  82 NE7       30.16S
ALAMOGORDO     FAIR      57  48  72 NE8       30.19S
T OR C         FAIR      60  49  66 NW6       30.20F

$$
NMZ519>523-281100-
CENTRAL VALLEYS/CENTRAL HIGHLANDS

CITY           SKY/WX    TMP DP  RH WIND       PRES   REMARKS
ALBUQUERQUE    FAIR      60  43  53 CALM      30.25S
DOUBLE EAGLE   FAIR      51  41  68 CALM      30.27S
CLINES CORNERS FAIR      47  38  71 W12       30.32S
BELEN          FAIR      54  42  64 NE3       30.23S
SOCORRO        FAIR      57  47  69 S6        30.21S

$$
NMZ524>526-539-540-281100-
SOUTHCENTRAL MOUNTAINS

CITY           SKY/WX    TMP DP  RH WIND       PRES   REMARKS
RUIDOSO        FAIR      52  41  66 W9        30.32S

$$
NMZ527>531-281100-
NORTHEAST HIGHLANDS/NORTHEAST PLAINS

CITY           SKY/WX    TMP DP  RH WIND       PRES   REMARKS
LAS VEGAS      FAIR      42  30  62 E6        30.30S
RATON          FAIR      41  31  67 NE10      30.27R
CLAYTON        FAIR      55  35  47 NW13      30.17R

$$
NMZ532>537-281100-
EASTCENTRAL PLAINS

CITY           SKY/WX    TMP DP  RH WIND       PRES   REMARKS
TUCUMCARI      FAIR      53  34  48 W6        30.15R
CANNON AFB     NOT AVBL
CLOVIS AIRPORT FAIR      50  37  62 W9        30.17S

$$
NMZ028-029-538-281100-
SOUTHEAST PLAINS

CITY           SKY/WX    TMP DP  RH WIND       PRES   REMARKS
ROSWELL        FAIR      54  46  74 CALM      30.14F
ARTESIA        FAIR      54  54 100 CALM      30.14S
CARLSBAD       FAIR      54  52  93 CALM      30.12S
HOBBS          FAIR      52  52 100 CALM      30.15F


$$




USA.gov is the U.S. government's official web portal to all federal, state and local government web resources and services.